Вернуться в каталог

UNICORN-2S

АктивенВоенныеSSO
NORAD 68475·PAYLOAD·🇩🇪 Germany

Запущен Mar 30, 2026 с Vandenberg Space Force Base

Loading…

Ближайшие Пролёты (ближайшие 24 часа)

TLE

СвежийSource: Space-Track

Эпоха: Sep 14, 2026, 08:31 UTC

1 68475U 26067BM  26257.35497484  .00007106  00000-0  68260-3 0  9996
2 68475  97.7584 214.1737 0005651 105.8434 254.3409 14.93343134 24502

Отслеживайте UNICORN-2S в реальном времени с AllMySat

Download on the App Store